User: anonymous   Login
Location: Nelson
(41.2830°S, 173.2830°E)
Time: 01:59:23
(UTC+13:00)
Language:

Cosmos 1709 Rocket - Orbit

View from above orbital plane
View from above orbital plane
View from above satellite
View from above satellite

Ground track
Ground track

The orbit data is extracted from the following two-line orbital elements,

1 16369U 85116B   19293.56728760 -.00000039 +00000-0 -54884-4 0  9998
2 16369 082.9367 072.0441 0035138 285.1464 122.7575 13.76842112699389
Epoch (UTC): 20 October 2019 13:36:53
Eccentricity: 0.0035138
inclination: 82.9367°
perigee height: 949 km
apogee height: 1001 km
right ascension of ascending node: 72.0441°
argument of perigee: 285.1464°
revolutions per day: 13.76842112
mean anomaly at epoch: 122.7575°
orbit number at epoch: 69938

The dashed part of the orbit path shows where the satellite is in the earth's shadow,  

DLR